This is the latest recevied weather packets stored in our database for station/object KB1YYC. If no packets are shown the sender has not sent any weather packets the latest 10 day(s).
| Time | Temp. | Humidity | Pressure | Rain* | Wind** | Luminosity | Snow |
|---|---|---|---|---|---|---|---|
| 1777899376 | 13.33° C | 56% | 1008.3 hPa | 0 mm | - | 462 W/m² | - |
| 1777899073 | 13.33° C | 57% | 1008.2 hPa | 0 mm | - | 424 W/m² | - |
| 1777898769 | 12.78° C | 57% | 1008.5 hPa | 0 mm | - | 448 W/m² | - |
| 1777898467 | 12.22° C | 59% | 1008.6 hPa | 0 mm | - | 457 W/m² | - |
| 1777898165 | 12.22° C | 60% | 1008.6 hPa | 0 mm | - | 363 W/m² | - |
| 1777897862 | 11.67° C | 62% | 1008.6 hPa | 0 mm | - | 311 W/m² | - |
| 1777897558 | 11.11° C | 66% | 1008.8 hPa | 0 mm | - | 367 W/m² | - |
| 1777897253 | 10.56° C | 66% | 1008.8 hPa | 0 mm | - | 345 W/m² | - |
| 1777896949 | 9.44° C | 70% | 1009 hPa | 0 mm | - | 288 W/m² | - |
| 1777896647 | 9.44° C | 69% | 1009 hPa | 0 mm | - | 69 W/m² | - |
| 1777896344 | 9.44° C | 70% | 1008.9 hPa | 0 mm | - | 94 W/m² | - |
| 1777896042 | 8.89° C | 71% | 1008.9 hPa | 0 mm | - | 136 W/m² | - |
| 1777895739 | 8.89° C | 70% | 1009 hPa | 0 mm | - | 55 W/m² | - |
| 1777895436 | 8.89° C | 68% | 1009.1 hPa | 0 mm | - | 53 W/m² | - |
| 1777895134 | 8.89° C | 67% | 1009.1 hPa | 0 mm | - | 45 W/m² | - |
| 1777894831 | 9.44° C | 68% | 1009.2 hPa | 0 mm | - | 34 W/m² | - |
| 1777894528 | 8.89° C | 67% | 1009.2 hPa | 0 mm | - | 53 W/m² | - |
| 1777894226 | 8.89° C | 66% | 1009.1 hPa | 0 mm | - | 81 W/m² | - |
| 1777893922 | 8.33° C | 69% | 1009.3 hPa | 0 mm | - | 122 W/m² | - |
| 1777893619 | 7.78° C | 76% | 1009.1 hPa | 0 mm | - | 91 W/m² | - |
| 1777893315 | 7.22° C | 76% | 1009 hPa | 0 mm | - | 67 W/m² | - |
| 1777893011 | 6.11° C | 81% | 1009.1 hPa | 0 mm | - | 107 W/m² | - |
| 1777892709 | 5.56° C | 79% | 1009.1 hPa | 0 mm | - | 93 W/m² | - |
| 1777892404 | 4.44° C | 80% | 1009.1 hPa | 0 mm | - | 59 W/m² | - |
| 1777892100 | 3.89° C | 85% | 1008.9 hPa | 0 mm | - | 64 W/m² | - |
* Rain latest hour (hover to see other rain measurements)
** Current wind speed in m/s (hover to see current wind gust speed)